CAPE
20 8 27 87 147 82 29 34 99 149 242 188 126 60 53 488 3323 3199 3211 2952 3124 2989 3180 2522 2542 2446 2206 1715 1913 2162 2298 1893 2526 1593 1592 1392 1007 875 626 399 15 91 105 39
59 92 54 16 2 0 7 22 103 30 158 219 122 9 8 304 2872 3548 3385 3002 3164 3103 2425 2287 2075 2569 2730 2641 2471 2568 2331 1645 2535 1917 1844 1336 1114 707 528 77 5 173 34 6
131 106 83 62 0 4 10 8 2 114 461 348 204 141 53 2457 3070 2752 2982 3125 3257 2447 2111 2460 2515 3319 2894 3373 3203 2589 2138 2195 1918 1712 1787 1227 1053 332 359 16 3 57 27 10
324 316 98 70 61 33 181 91 1 159 529 235 0 0 0 1890 2924 2917 2718 3260 2963 2106 2272 2785 2626 2959 3021 2583 2520 2109 1739 1328 1289 1216 1726 1513 1251 637 367 12 0 0 19 12
231 88 55 21 61 113 180 158 1169 1063 714 303 105 10 2164 2073 2728 3138 2848 3552 2334 2450 2936 2450 2647 2434 2573 2156 2425 1297 678 509 169 43 312 1682 453 207 108 21 12 19 19 21
47 1 4 152 0 280 462 261 1703 600 114 0 5 13 2449 3903 3859 3690 3332 2953 2786 2633 1684 1700 1467 1763 1943 1193 412 118 10 0 2 4 2 619 417 74 12 22 5 10 4 0
0 0 0 0 12 810 649 1504 2096 913 352 231 59 100 3130 3241 2979 2883 2784 1804 1830 1323 1016 819 632 1058 578 53 0 1 1 3 3 2 2 1 0 0 5 3 9 1 2 1
19 0 0 0 300 1121 2351 2475 2243 2066 1669 3007 2524 2348 2446 1852 1745 1820 1490 1396 1071 700 347 295 465 291 1 3 7 6 4 3 3 2 2 1 0 0 0 0 0 0 3 0
112 50 1821 1807 2315 2413 2349 2377 2325 2316 2097 2247 1836 1443 1109 857 892 1206 1200 1223 421 64 7 3 56 8 7 9 6 8 7 6 4 3 2 1 1 0 0 0 0 0 0 2
332 612 1315 1646 1638 1606 1966 2098 1997 1910 2004 1778 1470 773 544 616 822 885 805 535 171 28 7 4 9 3 9 7 10 6 5 4 2 1 1 1 2 1 1 1 1 0 0 1
316 990 950 757 1153 1201 1515 1903 2145 2195 2129 1929 1250 772 522 366 398 262 295 80 53 3 7 5 9 12 6 4 4 7 5 2 1 2 1 1 1 2 3 2 1 1 0 0
899 686 1079 1030 1109 998 1164 1198 1484 1700 1676 1532 1087 778 264 125 91 96 87 10 9 14 12 8 16 7 8 11 11 10 5 1 0 0 0 0 0 0 0 0 0 0 0 0
191 98 90 835 561 695 682 1000 1341 1332 1295 765 544 303 110 16 12 4 6 4 0 2 9 11 11 7 2 6 5 12 2 0 0 0 0 0 0 0 0 0 0 0 0 0
12 17 196 384 295 276 342 601 815 895 471 283 179 147 82 25 2 0 4 5 6 7 5 12 8 4 9 7 21 15 1 0 11 10 1 0 1 0 0 0 0 0 0 0
3 0 25 34 166 122 131 260 916 925 492 239 202 149 93 25 9 3 4 4 6 4 7 7 8 10 11 5 2 0 0 0 0 0 0 0 0 0 0 0 0 0 0 0
2 0 2 5 34 121 105 191 375 735 705 433 389 268 208 193 32 9 5 10 9 12 18 14 9 14 2 0 0 0 0 0 0 0 0 0 0 0 0 0 0 0 0 0
22 11 25 64 153 199 68 92 72 124 582 541 342 398 166 102 0 10 7 9 8 22 28 18 8 0 0 0 0 0 0 0 0 0 0 0 0 0 0 0 0 0 0 0
7 12 21 20 40 88 126 79 34 248 568 349 441 305 187 108 22 3 16 13 9 15 17 11 0 0 0 0 0 0 0 0 0 0 0 0 0 0 1 0 0 0 0 0
49 51 49 52 45 51 67 59 72 40 399 414 358 320 287 79 78 33 0 5 14 0 10 0 0 0 0 0 0 0 0 0 0 4 6 0 12 20 17 37 30 31 10 0
31 40 86 67 67 101 89 113 160 292 410 415 264 327 417 386 112 44 8 8 6 9 3 0 0 0 0 0 0 0 10 18 40 4 11 20 31 41 22 1 9 13 19 40
5 30 83 69 120 148 154 146 166 269 158 256 376 639 626 466 291 127 49 14 31 0 0 0 0 0 0 0 0 6 32 42 40 30 8 22 27 10 7 11 5 9 14 33
6 0 28 121 270 323 456 390 416 401 446 330 248 296 686 554 326 125 163 17 0 0 0 0 1 3 0 0 0 0 1 0 1 4 2 6 5 13 20 36 2 0 21 45
15 14 37 200 427 624 623 536 746 264 228 432 759 714 560 290 127 17 128 0 0 0 0 0 0 0 0 0 0 0 0 0 0 0 0 0 0 0 0 5 2 7 25 4
24 8 132 293 552 861 631 321 715 604 978 1050 866 669 337 0 0 0 0 0 0 0 0 0 0 0 0 0 0 0 0 0 0 0 0 0 1 2 26 18 11 17 21 13
23 87 387 723 658 268 205 109 28 35 17 4 4 4 0 0 0 0 0 0 0 0 0 0 0 0 0 0 0 0 0 0 0 0 0 1 13 19 10 14 5 7 0 0
89 326 354 367 391 321 190 74 42 19 4 2 3 3 5 7 4 3 0 0 0 0 0 0 0 0 0 0 0 0 0 0 4 4 5 17 9 3 0 0 0 0 0 0
15 13 38 25 6 6 14 10 10 8 7 6 5 6 3 1 0 3 4 4 3 0 0 0 0 0 0 0 0 20 24 0 0 0 4 0 0 0 0 0 0 0 0 0
CIN
-80 -38 -8 -1 -3 -1 -9 -15 -6 -12 -24 -192 -425 -669 -382 -330 -8 -3 -4 -1 -12 -5 -24 -72 -41 -25 -9 -1 -3 -4 0 -1 -5 -41 -34 -10 -3 -2 -1 -6 -12 -17 -13 -23
-92 -74 -38 -15 -12 -9 -31 -18 -1 -10 -5 -288 -591 -504 -358 -298 -16 -1 0 0 -4 -3 -59 -68 -47 -22 -3 -4 -1 -4 0 -1 -8 -38 -19 -16 -6 -6 -3 -65 -2 -4 -7 -1
-73 -57 -37 -22 0 -21 -31 -36 -12 -1 -41 -332 -477 -415 -231 -11 -8 -15 -3 0 -2 -46 -67 -27 -20 -2 -3 -13 -7 -7 -2 -18 -26 -7 -8 -28 -10 -48 -10 -34 -1 -17 -11 0
-34 -26 -27 -54 -24 -13 -18 -2 -4 -3 -181 -502 0 0 0 -6 -3 -5 0 -1 -6 -62 -18 -1 -1 -25 -15 -18 -12 -1 -52 -62 -37 -30 -1 -6 -4 -7 -2 -23 -1 -1 -8 0
-29 -48 -49 -40 -73 -48 -5 -2 -93 -118 -227 -370 -505 -39 -6 -27 -3 0 -2 -14 -47 -12 -10 -37 -16 -20 -2 -2 -2 -79 -152 -166 -231 -35 -141 -1 -44 -42 -36 -51 -1 -9 -3 -2
-82 -6 -66 -32 0 -2 -1 0 -64 -148 -526 0 -214 -138 -9 -12 -23 -24 -46 -40 -23 -32 -127 -105 -99 -57 -11 -70 -214 -330 -429 0 0 0 0 -23 -20 -62 -28 -20 -13 -1 -3 0
0 0 0 0 -47 -151 -133 -6 -8 -154 -267 -495 -688 -311 -3 -46 -88 -78 -53 -167 -133 -204 -280 -244 -238 -105 -199 -265 0 0 0 0 0 0 0 0 0 0 -29 -4 -17 -4 -1 0
-12 0 0 0 -10 -7 -7 0 -8 -27 -93 -67 -86 -79 -104 -205 -201 -157 -168 -136 -214 -299 -329 -308 -251 -311 0 0 0 0 0 0 0 0 0 0 0 0 0 0 0 0 -2 0
0 -4 -11 -12 -7 -2 -21 0 -4 -12 -7 -27 -61 -150 -231 -308 -291 -204 -169 -135 -332 -492 -569 -52 -425 -122 0 0 0 0 0 0 0 0 0 0 0 0 0 0 0 0 0 0
-4 -2 -4 -2 -2 -41 -27 -31 -17 0 -1 -28 -141 -267 -340 -299 -243 -240 -238 -267 -377 -457 -30 0 0 0 0 0 0 0 0 0 0 0 0 0 0 0 0 0 0 0 0 0
-5 -6 -64 -67 -5 -46 -15 -11 0 -14 -6 -5 -125 -192 -263 -307 -295 -352 -367 -433 -405 -59 0 0 -1 0 0 0 0 0 0 0 0 0 0 0 0 0 0 0 0 0 0 -1
-23 -20 -2 -2 0 -23 -1 -1 0 -7 -20 -29 -96 -151 -277 -340 -353 -350 -364 -444 -81 0 0 0 0 0 0 0 -1 0 0 0 0 0 0 0 0 0 0 0 0 0 0 0
-38 -49 -151 -1 0 0 -3 0 -4 -4 -11 -80 -135 -199 -260 -388 -241 -14 0 0 0 0 0 -1 0 -1 -1 -2 -1 0 0 0 0 0 0 0 0 0 0 0 0 0 0 0
-1 -30 -6 -2 -7 -12 -4 -1 -14 -19 -76 -120 -160 -182 -194 -260 0 0 0 0 0 0 0 0 0 -1 0 -2 0 0 -2 0 -3 -3 -4 0 -3 0 0 0 0 0 0 0
-9 0 -2 -1 -5 -151 -132 -3 -18 0 -32 -98 -98 -123 -122 -161 0 0 0 0 0 -1 -1 -1 0 0 0 0 0 0 0 0 0 0 0 0 0 0 0 0 0 0 0 0
-4 0 -8 -1 -3 -3 -3 -4 -3 -1 0 -39 -30 -47 -43 -43 -79 0 -1 -1 0 0 -2 -2 -3 -1 0 0 0 0 0 0 0 0 0 0 0 0 0 0 0 0 0 0
0 -1 -1 -1 -2 -5 0 0 -13 -70 -1 0 -24 -2 -15 -63 0 -1 -2 -3 -2 -3 -2 -4 -1 0 0 0 0 0 0 0 0 0 0 0 0 0 0 0 0 0 0 0
0 -6 -3 -1 -15 -10 0 -6 -21 -33 -44 -31 -2 -8 -1 -31 -81 -42 -1 -1 -5 -2 -40 -1 0 0 0 0 0 0 0 0 0 0 0 -1 0 0 -1 0 0 0 0 0
-4 -1 0 0 0 -2 -28 -4 -11 -8 -63 -52 -4 -1 -2 -14 -18 -65 -15 -48 -75 -2 -124 0 0 0 0 0 0 0 0 0 0 -1 -2 -8 -1 -7 -22 -5 -12 -5 -6 0
-26 -27 -24 0 0 -1 -4 -9 -1 -11 -71 -16 -23 -20 -11 -8 -58 -61 -79 -86 -93 -30 -11 0 0 0 0 0 0 0 0 -2 -7 -79 -56 -9 -8 -7 -4 -17 -19 -7 -4 -20
-7 -14 -19 -26 -1 -2 -2 -3 -12 -8 -61 -102 -13 -5 -3 -1 -8 -46 -55 -64 -28 0 0 0 0 0 0 0 0 -6 -3 -11 -20 -37 -16 -23 -5 -11 -16 -33 -28 -5 -7 -3
0 0 -19 -35 -6 -1 -11 -1 -2 -5 -53 -77 -39 -6 -1 0 -1 -14 -6 -6 0 0 0 0 -1 -11 0 0 0 0 -21 0 -21 -15 -14 -7 -24 -14 -16 -6 -1 0 -13 -21
0 0 -37 -11 -4 -1 -6 -9 -12 -13 -22 -53 -3 -1 -30 -26 -30 -59 -6 0 0 0 0 -1 0 0 0 0 0 0 0 0 0 0 0 0 0 0 0 0 -2 -1 -2 -16
-4 -3 -19 -14 -1 0 -5 -12 -19 -65 -13 0 0 -1 -15 0 0 0 0 0 0 0 0 0 0 0 0 0 0 0 0 0 0 0 0 0 -2 0 0 -1 -3 -9 -20 -27
-1 -18 -2 0 -8 -81 -96 -77 -155 -127 -130 -1 0 0 0 0 0 0 0 0 0 0 0 0 0 0 0 0 0 0 0 0 0 0 0 -3 -8 -8 -30 -21 -22 -21 0 0
-10 -1 -4 -16 -22 -45 -78 -108 -133 -174 0 0 0 0 0 0 0 0 0 0 0 0 0 0 0 0 0 0 0 0 0 0 -3 -2 -12 -15 -14 -17 0 0 0 0 0 0
-22 -27 -18 -62 -42 -33 -87 -158 0 0 0 0 0 0 0 0 0 0 0 0 0 0 0 0 0 0 0 0 0 -19 -5 0 0 0 -2 -2 0 0 0 0 0 0 0 0
Wind_Speed
15 18 17 15 16 17 14 16 15 16 6 9 6 19 14 33 10 11 12 12 14 11 9 9 5 4 4 3 8 9 5 5 6 7 9 6 6 7 6 7 6 5 5 7
16 19 21 19 19 14 16 18 15 15 10 7 10 5 21 25 11 11 12 13 15 13 10 8 6 5 5 6 7 7 6 3 5 7 7 6 7 8 6 5 4 6 5 9
14 16 15 16 16 14 15 15 17 16 5 21 20 14 26 12 13 12 14 12 15 14 9 9 10 5 4 7 6 4 3 4 5 2 5 5 8 9 8 4 5 6 6 8
12 13 16 14 11 8 15 13 15 13 20 24 23 31 31 5 10 10 13 14 15 12 9 8 8 8 8 7 3 3 8 6 7 8 4 4 7 8 9 5 5 5 5 7
11 13 14 17 4 16 14 13 14 23 27 13 11 18 6 6 8 11 11 15 12 11 11 9 9 7 5 3 4 10 6 8 7 9 8 2 9 7 6 7 4 5 5 6
12 14 16 12 14 14 20 6 13 16 24 23 16 7 3 13 15 16 17 13 13 14 12 10 7 6 5 7 10 9 9 9 8 8 8 4 6 6 5 5 5 6 8 8
12 13 16 17 15 21 16 8 12 10 10 17 13 16 3 10 14 14 15 14 13 11 10 9 6 5 8 10 9 8 8 7 7 7 7 7 6 5 4 4 6 7 8 8
11 14 20 13 11 4 2 6 8 9 8 11 10 7 10 11 8 10 12 12 14 12 9 5 6 8 9 8 6 6 8 8 8 7 6 6 8 7 7 5 7 6 5 7
9 7 7 11 13 11 8 4 7 7 9 9 11 10 8 9 10 10 10 10 12 11 9 8 7 9 9 6 7 8 8 8 8 8 7 7 7 6 6 7 6 5 4 4
3 6 10 10 12 11 9 8 6 3 8 7 11 9 9 9 9 9 8 9 10 10 9 8 7 8 8 7 7 9 9 9 8 8 8 7 6 6 5 5 4 4 4 3
6 7 10 9 11 8 8 8 8 14 13 13 11 9 10 8 8 8 10 10 9 10 8 7 7 7 6 6 7 8 9 9 8 7 8 8 7 5 5 4 2 3 2 2
5 11 8 7 8 8 7 7 7 8 8 10 8 8 10 7 7 7 9 8 7 8 8 7 6 9 7 4 5 6 7 7 6 6 6 7 7 7 11 8 9 9 8 4
3 3 7 11 2 2 4 8 13 9 7 5 7 8 8 7 5 6 6 8 8 8 8 7 6 6 6 5 5 5 7 7 7 7 7 7 6 7 7 5 7 8 7 7
6 5 6 3 7 9 6 4 10 11 9 6 6 6 7 8 9 8 7 8 9 9 9 8 7 6 5 6 6 7 5 4 5 5 6 8 8 8 8 9 8 5 2 2
6 8 6 9 1 7 17 1 7 7 9 9 6 7 7 8 8 7 7 8 8 7 8 8 8 8 8 7 6 6 5 4 5 5 5 3 3 4 5 5 8 7 6 4
6 5 10 12 9 6 6 11 6 6 8 10 8 8 9 8 10 9 6 6 6 6 7 7 8 7 7 7 7 5 6 7 6 5 5 4 4 5 6 4 3 5 7 8
6 7 10 10 5 4 9 4 1 7 5 10 10 10 7 10 10 10 6 5 4 7 6 6 7 7 7 6 6 6 6 4 4 4 5 5 4 5 3 2 3 3 7 6
7 8 11 13 1 10 7 6 9 5 4 1 6 8 10 11 9 9 6 7 6 5 5 7 7 7 6 6 5 5 5 5 5 6 4 2 3 0 3 2 2 2 8 6
13 9 10 12 12 11 9 7 8 4 9 5 11 8 7 9 9 9 12 10 8 6 8 8 7 7 5 2 3 4 5 4 3 4 1 4 3 5 3 3 3 1 2 8
13 15 19 11 13 10 11 10 11 6 9 11 8 10 12 12 12 9 7 4 6 6 9 9 8 5 4 3 5 7 2 3 5 4 4 4 3 6 6 4 5 6 3 4
12 13 15 16 12 12 13 10 9 6 11 12 10 12 10 11 11 11 10 6 3 11 12 11 8 6 5 5 3 3 5 5 3 3 2 2 4 6 5 4 4 2 5 1
11 15 12 13 15 13 11 12 11 7 13 10 8 15 12 11 11 9 7 7 7 12 9 8 5 3 6 6 4 8 3 4 3 2 6 7 7 6 5 4 5 7 5 3
11 12 13 12 13 15 16 13 17 8 4 12 14 13 11 8 7 6 5 5 7 2 8 6 4 10 8 3 8 9 10 11 10 8 8 8 9 10 10 6 3 5 5 7
7 11 13 13 13 15 8 14 8 14 10 12 14 10 10 10 10 7 8 13 15 14 10 9 12 15 13 9 10 8 6 5 5 4 4 5 7 8 5 4 6 9 11 11
9 10 10 8 3 3 12 4 9 11 12 13 13 13 14 9 9 8 11 9 14 14 11 12 15 13 9 6 5 4 4 3 0 3 6 6 7 6 10 9 9 9 11 10
4 1 4 6 5 4 5 7 7 7 9 9 9 9 9 8 8 9 8 10 8 9 6 4 5 5 5 4 3 4 4 4 6 5 7 3 8 8 9 9 10 10 9 10
7 7 6 6 6 8 8 9 8 8 7 8 10 7 8 8 8 8 8 7 7 6 5 4 3 3 4 5 7 8 6 5 6 5 7 9 8 9 8 8 8 8 8 9
Wind_Direction
283 284 285 247 227 237 228 245 251 278 133 117 107 89 353 302 145 149 139 148 129 140 115 109 93 57 100 136 127 137 156 184 154 120 127 132 126 96 82 66 77 75 76 63
278 282 278 268 264 260 273 288 286 255 263 143 102 121 205 250 146 158 151 155 141 138 130 131 138 218 183 112 133 149 173 131 152 126 137 147 130 123 107 93 88 84 81 72
266 279 271 272 272 257 267 267 267 282 295 93 67 33 282 210 163 170 161 164 143 138 156 165 178 191 139 88 90 126 96 13 43 271 173 172 143 134 122 114 106 98 60 79
277 273 252 263 300 316 325 278 272 311 122 137 149 188 231 257 149 163 165 157 140 142 162 165 148 67 75 92 95 108 66 47 23 4 321 199 137 137 123 132 125 114 106 96
263 259 268 272 84 294 293 265 43 61 86 83 36 339 104 82 122 159 162 129 125 132 103 86 92 105 100 121 112 88 58 55 29 15 345 304 127 137 136 138 136 126 111 96
263 277 257 269 279 350 297 200 43 83 97 92 99 281 351 53 59 60 95 112 111 104 98 83 68 80 88 54 58 57 49 42 27 5 343 325 126 134 131 135 127 105 85 73
236 254 268 282 297 92 337 2 3 73 104 136 131 187 225 90 77 80 91 98 101 98 92 93 91 91 86 78 66 57 59 56 44 25 11 17 58 59 115 130 97 108 98 82
245 257 259 288 326 33 78 28 350 34 88 94 95 120 94 89 85 106 105 131 104 96 89 83 113 103 87 92 92 86 82 73 59 44 30 34 52 46 44 83 95 85 93 82
219 266 85 51 66 57 18 18 20 20 50 93 120 108 123 124 128 129 121 102 101 94 89 64 58 100 116 109 103 95 88 83 74 63 49 41 45 50 59 56 75 73 86 84
324 135 97 79 68 38 26 13 339 16 93 100 101 117 120 127 127 109 100 93 110 123 114 111 96 99 117 124 120 113 105 101 88 76 71 58 57 48 57 60 67 80 94 105
263 105 82 32 71 42 30 22 17 39 20 98 117 131 134 142 134 90 79 78 83 98 105 109 109 105 111 118 121 115 113 106 102 98 94 83 61 44 64 50 45 115 110 117
35 8 16 7 32 15 12 41 46 46 55 74 119 134 137 129 134 124 117 116 112 117 126 135 124 119 118 119 130 142 134 118 118 121 117 110 106 89 55 60 50 62 65 78
141 59 318 316 284 2 5 43 26 76 58 89 93 132 131 135 140 128 137 129 138 134 137 135 135 130 134 141 146 117 111 137 135 138 132 132 133 129 119 76 68 69 71 65
33 352 315 51 4 341 320 81 111 90 92 96 120 127 151 130 152 151 148 143 141 143 144 139 139 129 128 147 150 162 150 200 174 149 156 158 164 160 149 155 130 115 118 142
302 335 318 324 35 48 328 131 107 117 127 136 159 156 154 157 147 136 148 150 151 146 143 141 141 145 156 152 141 160 184 112 93 70 63 65 85 67 79 85 117 128 140 187
302 314 308 306 304 297 311 10 17 154 153 155 167 182 182 148 126 141 139 144 163 156 148 143 140 161 136 148 185 103 73 70 133 155 169 128 108 106 120 134 174 153 185 143
304 311 323 320 340 334 303 288 82 32 236 178 177 199 138 128 130 131 162 161 137 118 121 137 139 145 159 180 137 141 131 169 257 146 90 83 83 76 57 75 101 64 109 108
290 294 299 291 175 288 232 276 303 79 122 340 197 168 147 142 147 142 145 134 135 134 148 132 153 158 183 174 162 148 135 196 196 98 138 173 23 209 194 173 188 155 145 160
329 286 276 286 291 294 318 236 257 228 158 124 217 165 137 149 163 159 148 162 156 153 138 150 148 187 178 111 327 188 177 157 121 160 28 102 229 255 335 357 353 285 161 154
324 324 323 281 283 280 276 299 271 175 136 175 184 177 180 165 157 150 146 169 190 153 133 135 173 174 165 240 1 324 272 75 63 83 62 325 21 347 46 355 331 322 9 52
298 295 309 313 280 277 279 264 264 214 163 145 210 215 190 143 152 145 153 189 157 127 130 150 197 156 189 171 252 285 28 56 46 29 338 278 3 3 346 321 334 284 298 345
293 284 281 301 303 289 284 280 268 237 172 169 144 231 164 158 153 153 158 149 148 128 139 178 211 141 156 176 52 34 30 60 65 38 26 31 17 9 343 9 27 354 15 236
276 273 276 287 281 277 274 271 294 223 168 139 184 164 156 144 134 138 145 114 108 100 174 123 65 96 81 328 100 63 56 51 46 39 31 19 9 352 327 324 4 308 3 19
262 253 247 258 282 282 310 26 44 46 66 103 102 125 119 98 81 74 76 90 97 84 82 80 75 70 81 79 76 76 61 54 48 35 12 307 276 272 282 18 8 30 38 40
251 261 269 263 262 42 83 103 81 90 74 69 75 64 63 50 93 87 81 75 88 100 96 74 75 74 84 81 87 88 79 69 130 244 255 266 296 32 32 26 45 32 53 41
251 116 58 51 70 89 88 84 88 94 88 81 71 74 76 80 81 89 94 106 99 90 97 92 94 92 105 131 155 166 195 220 232 235 250 341 46 30 35 27 30 38 47 45
72 64 74 76 64 68 75 73 77 72 72 97 99 97 95 95 86 91 106 98 102 104 107 121 128 155 169 199 213 213 173 111 47 2 33 44 42 44 29 29 29 33 27 43